User: anonymous   Login
Location: Unspecified
(0.0000°N, 0.0000°E)
Time: 15:35:04
(UTC+00:00)
Language:

PINA 2B - Orbit

View from above orbital plane
View from above orbital plane
View from above satellite
View from above satellite

Ground track
Ground track

The orbit data is extracted from the following two-line orbital elements,

1 41844U 16066D   21337.10087604  .00002976  00000-0  11668-3 0  9991
2 41844  97.3973 345.6222 0012427 262.6192 183.2794 15.26492500281626
Epoch (UTC): 03 December 2021 02:25:15
Eccentricity: 0.0012427
inclination: 97.3973°
perigee height: 478 km
apogee height: 495 km
right ascension of ascending node: 345.6222°
argument of perigee: 262.6192°
revolutions per day: 15.26492500
mean anomaly at epoch: 183.2794°
orbit number at epoch: 28162

The dashed part of the orbit path shows where the satellite is in the earth's shadow,  

DLR